,,,PA_Meas_PMT16A,,PR_Meas_QMR101_102,,RH_Meas_QMH101,,SR_Meas_QMS101,,TA_Meas_QMH101,,GenWind,,GenWind,
date,time,status,PA,status,PR,status,RH,status,SR,status,TA,status,DirAvg,status,SpdAvg,
2012-06-08, 00:00:05,VALID,1001.08,VALID,0,VALID,93.8977,VALID,0,VALID,23.797,VALID,3,VALID,0.595703,
2012-06-08, 00:01:05,VALID,1001.06,VALID,0,VALID,93.8977,VALID,0,VALID,23.7988,VALID,3,VALID,0.444141,
2012-06-08, 00:02:05,VALID,1001.09,VALID,0,VALID,93.9283,VALID,0,VALID,23.8183,VALID,3,VALID,0.290234,
2012-06-08, 00:03:05,VALID,1001.1,VALID,0,VALID,93.9435,VALID,0,VALID,23.7988,VALID,3,VALID,0.205078,
2012-06-08, 00:04:05,VALID,1001.03,VALID,0,VALID,93.9359,VALID,0,VALID,23.8183,VALID,3,VALID,0.561719,
2012-06-08, 00:05:05,VALID,1001.04,VALID,0,VALID,93.9054,VALID,0,VALID,23.7988,VALID,3,VALID,0.491797,
2012-06-08, 00:06:05,VALID,1001.06,VALID,0,VALID,93.8672,VALID,0,VALID,23.7988,VALID,3,VALID,0.08125,
2012-06-08, 00:07:05,VALID,1001.06,VALID,0,VALID,93.7757,VALID,0,VALID,23.7579,VALID,3,VALID,0.121875,
2012-06-08, 00:08:05,VALID,1001.07,VALID,0,VALID,93.7375,VALID,0,VALID,23.7189,VALID,3,VALID,0,
2012-06-08, 00:09:05,VALID,1001.08,VALID,0,VALID,93.6765,VALID,0,VALID,23.6817,VALID,3,VALID,0,
2012-06-08, 00:10:05,VALID,1001.12,VALID,0,VALID,93.7451,VALID,0,VALID,23.6622,VALID,3,VALID,0,
2012-06-08, 00:11:05,VALID,1001.12,VALID,0,VALID,93.8748,VALID,0,VALID,23.6427,VALID,3,VALID,0,
2012-06-08, 00:12:05,VALID,1001.12,VALID,0,VALID,94.0656,VALID,0,VALID,23.6427,VALID,3,VALID,0,
2012-06-08, 00:13:05,VALID,1001.14,VALID,0,VALID,94.18,VALID,0,VALID,23.6427,VALID,3,VALID,0,
2012-06-08, 00:14:05,VALID,1001.11,VALID,0,VALID,94.264,VALID,0,VALID,23.6622,VALID,3,VALID,0,
2012-06-08, 00:15:05,VALID,1001.11,VALID,0,VALID,94.3555,VALID,0,VALID,23.6427,VALID,3,VALID,0.445313,
2012-06-08, 00:16:05,VALID,1001.1,VALID,0,VALID,94.3937,VALID,0,VALID,23.6622,VALID,18,VALID,0.732422,
2012-06-08, 00:17:05,VALID,1001.12,VALID,0,VALID,94.3555,VALID,0,VALID,23.7402,VALID,38,VALID,0.646094,
2012-06-08, 00:18:05,VALID,1001.07,VALID,0,VALID,94.0961,VALID,0,VALID,23.797,VALID,38,VALID,0.796484,
2012-06-08, 00:19:05,VALID,1001.08,VALID,0,VALID,93.5086,VALID,0,VALID,23.8963,VALID,96,VALID,0.866406,
2012-06-08, 00:20:05,VALID,1001.06,VALID,0,VALID,92.8296,VALID,0,VALID,23.9939,VALID,96,VALID,0.916797,
2012-06-08, 00:21:05,VALID,1001.07,VALID,0,VALID,92.2268,VALID,0,VALID,24.072,VALID,96,VALID,0.9,
2012-06-08, 00:22:05,VALID,1001.06,VALID,0,VALID,92.0437,VALID,0,VALID,24.111,VALID,96,VALID,0.800391,
2012-06-08, 00:23:05,VALID,1001.02,VALID,0,VALID,92.1048,VALID,0,VALID,24.111,VALID,96,VALID,0.652344,
2012-06-08, 00:24:05,VALID,1001,VALID,0,VALID,92.2803,VALID,0,VALID,24.1305,VALID,96,VALID,0.733984,
2012-06-08, 00:25:05,VALID,1000.97,VALID,0,VALID,92.1429,VALID,0,VALID,24.111,VALID,96,VALID,0.582031,
2012-06-08, 00:26:05,VALID,1000.96,VALID,0,VALID,91.998,VALID,0,VALID,24.0329,VALID,96,VALID,0.341797,
2012-06-08, 00:27:05,VALID,1000.96,VALID,0,VALID,92.1353,VALID,0,VALID,23.9921,VALID,96,VALID,0.382031,
2012-06-08, 00:28:05,VALID,1000.96,VALID,0,VALID,92.2803,VALID,0,VALID,23.9744,VALID,101,VALID,0.767969,
2012-06-08, 00:29:05,VALID,1000.95,VALID,0,VALID,92.3642,VALID,0,VALID,23.914,VALID,113,VALID,0.782812,
2012-06-08, 00:30:05,VALID,1000.95,VALID,0,VALID,92.265,VALID,0,VALID,23.914,VALID,113,VALID,0.536328,
2012-06-08, 00:31:05,VALID,1000.97,VALID,0,VALID,92.1124,VALID,0,VALID,23.9549,VALID,113,VALID,0.532422,
2012-06-08, 00:32:05,VALID,1000.97,VALID,0,VALID,91.792,VALID,0,VALID,23.9744,VALID,113,VALID,0.744141,
2012-06-08, 00:33:05,VALID,1000.98,VALID,0,VALID,90.9527,VALID,0,VALID,23.9921,VALID,121,VALID,1.13047,
2012-06-08, 00:34:05,VALID,1000.96,VALID,0,VALID,89.6633,VALID,0,VALID,24.0897,VALID,127,VALID,1.26523,
2012-06-08, 00:35:05,VALID,1000.94,VALID,0,VALID,88.9919,VALID,0,VALID,24.2086,VALID,127,VALID,0.889844,
2012-06-08, 00:36:05,VALID,1000.93,VALID,0,VALID,88.0153,VALID,0,VALID,24.2671,VALID,131,VALID,1.4707,
2012-06-08, 00:37:05,VALID,1000.92,VALID,0,VALID,86.4589,VALID,0,VALID,24.3842,VALID,129,VALID,1.64336,
2012-06-08, 00:38:05,VALID,1000.87,VALID,0,VALID,85.6959,VALID,0,VALID,24.5599,VALID,130,VALID,1.32617,
2012-06-08, 00:39:05,VALID,1000.88,VALID,0,VALID,84.7346,VALID,0,VALID,24.638,VALID,130,VALID,1.02344,
2012-06-08, 00:40:05,VALID,1000.88,VALID,0,VALID,84.7498,VALID,0,VALID,24.677,VALID,132,VALID,1.03164,
2012-06-08, 00:41:05,VALID,1000.88,VALID,0,VALID,84.5209,VALID,0,VALID,24.677,VALID,130,VALID,1.25352,
2012-06-08, 00:42:05,VALID,1000.87,VALID,0,VALID,84.5438,VALID,0,VALID,24.6965,VALID,130,VALID,1.12266,
2012-06-08, 00:43:05,VALID,1000.87,VALID,0,VALID,84.5896,VALID,0,VALID,24.6556,VALID,130,VALID,1.09375,
2012-06-08, 00:44:05,VALID,1000.89,VALID,0,VALID,84.6049,VALID,0,VALID,24.677,VALID,130,VALID,0.998828,
2012-06-08, 00:45:05,VALID,1000.89,VALID,0,VALID,84.5972,VALID,0,VALID,24.677,VALID,130,VALID,1.29414,
2012-06-08, 00:46:05,VALID,1000.87,VALID,0,VALID,84.3073,VALID,0,VALID,24.6965,VALID,130,VALID,1.5168,
2012-06-08, 00:47:05,VALID,1000.86,VALID,0,VALID,84.2005,VALID,0,VALID,24.6965,VALID,125,VALID,1.525,
2012-06-08, 00:48:05,VALID,1000.86,VALID,0,VALID,84.2157,VALID,0,VALID,24.6751,VALID,118,VALID,1.48516,
2012-06-08, 00:49:05,VALID,1000.83,VALID,0,VALID,84.2386,VALID,0,VALID,24.6965,VALID,124,VALID,1.40703,
2012-06-08, 00:50:05,VALID,1000.81,VALID,0,VALID,84.4599,VALID,0,VALID,24.677,VALID,122,VALID,1.20664,
2012-06-08, 00:51:05,VALID,1000.83,VALID,0,VALID,84.9024,VALID,0,VALID,24.6184,VALID,121,VALID,0.854297,
2012-06-08, 00:52:05,VALID,1000.84,VALID,0,VALID,85.5433,VALID,0,VALID,24.5794,VALID,111,VALID,0.644922,
2012-06-08, 00:53:05,VALID,1000.85,VALID,0,VALID,85.8943,VALID,0,VALID,24.5404,VALID,114,VALID,0.703516,
2012-06-08, 00:54:05,VALID,1000.83,VALID,0,VALID,86.085,VALID,0,VALID,24.4604,VALID,116,VALID,0.740625,
2012-06-08, 00:55:05,VALID,1000.82,VALID,0,VALID,86.4589,VALID,0,VALID,24.4428,VALID,115,VALID,0.725391,
2012-06-08, 00:56:05,VALID,1000.84,VALID,0,VALID,86.8251,VALID,0,VALID,24.4037,VALID,113,VALID,0.622266,
2012-06-08, 00:57:05,VALID,1000.87,VALID,0,VALID,87.3363,VALID,0,VALID,24.3647,VALID,114,VALID,0.573047,
2012-06-08, 00:58:05,VALID,1000.84,VALID,0,VALID,87.5194,VALID,0,VALID,24.3452,VALID,108,VALID,0.700781,
2012-06-08, 00:59:05,VALID,1000.85,VALID,0,VALID,86.9777,VALID,0,VALID,24.2848,VALID,126,VALID,1.18672,
2012-06-08, 01:00:05,VALID,1000.85,VALID,0,VALID,86.6572,VALID,0,VALID,24.3257,VALID,121,VALID,0.9875,
2012-06-08, 01:01:05,VALID,1000.82,VALID,0,VALID,86.5886,VALID,0,VALID,24.3257,VALID,130,VALID,0.963672,
2012-06-08, 01:02:05,VALID,1000.8,VALID,0,VALID,86.764,VALID,0,VALID,24.2848,VALID,129,VALID,0.284766,
2012-06-08, 01:03:05,VALID,1000.81,VALID,0,VALID,87.0158,VALID,0,VALID,24.2866,VALID,129,VALID,0,
2012-06-08, 01:04:05,VALID,1000.76,VALID,0,VALID,87.1226,VALID,0,VALID,24.2671,VALID,129,VALID,0.0964844,
2012-06-08, 01:05:05,VALID,1000.75,VALID,0,VALID,87.0692,VALID,0,VALID,24.2281,VALID,129,VALID,0.160547,
2012-06-08, 01:06:05,VALID,1000.78,VALID,0,VALID,86.9243,VALID,0,VALID,24.2281,VALID,130,VALID,0.309766,
2012-06-08, 01:07:05,VALID,1000.73,VALID,0,VALID,87.0006,VALID,0,VALID,24.2476,VALID,129,VALID,0,
2012-06-08, 01:08:05,VALID,1000.74,VALID,0,VALID,87.1837,VALID,0,VALID,24.2281,VALID,129,VALID,0.00429688,
2012-06-08, 01:09:05,VALID,1000.76,VALID,0,VALID,87.5423,VALID,0,VALID,24.1891,VALID,129,VALID,0.228125,
2012-06-08, 01:10:05,VALID,1000.74,VALID,0,VALID,88.3968,VALID,0,VALID,24.1696,VALID,103,VALID,0.542969,
2012-06-08, 01:11:05,VALID,1000.73,VALID,0,VALID,88.1068,VALID,0,VALID,24.111,VALID,102,VALID,0.810156,
2012-06-08, 01:12:05,VALID,1000.74,VALID,0,VALID,87.4812,VALID,0,VALID,24.1305,VALID,127,VALID,0.889063,
2012-06-08, 01:13:05,VALID,1000.76,VALID,0,VALID,87.0463,VALID,0,VALID,24.2104,VALID,140,VALID,0.780078,
2012-06-08, 01:14:05,VALID,1000.71,VALID,0,VALID,86.5962,VALID,0,VALID,24.2671,VALID,140,VALID,0.644141,
2012-06-08, 01:15:05,VALID,1000.74,VALID,0,VALID,86.0774,VALID,0,VALID,24.3452,VALID,140,VALID,0.954297,
2012-06-08, 01:16:05,VALID,1000.74,VALID,0,VALID,85.3297,VALID,0,VALID,24.4623,VALID,130,VALID,1.33555,
2012-06-08, 01:17:05,VALID,1000.75,VALID,0,VALID,84.91,VALID,0,VALID,24.5404,VALID,133,VALID,1.35938,
2012-06-08, 01:18:05,VALID,1000.74,VALID,0,VALID,84.6659,VALID,0,VALID,24.6184,VALID,132,VALID,1.28594,
2012-06-08, 01:19:05,VALID,1000.73,VALID,0,VALID,84.292,VALID,0,VALID,24.6575,VALID,130,VALID,1.55195,
2012-06-08, 01:20:05,VALID,1000.73,VALID,0,VALID,84.025,VALID,0,VALID,24.716,VALID,130,VALID,1.23555,
2012-06-08, 01:21:05,VALID,1000.75,VALID,0,VALID,84.1089,VALID,0,VALID,24.6946,VALID,130,VALID,1.12773,
2012-06-08, 01:22:05,VALID,1000.72,VALID,0,VALID,83.9258,VALID,0,VALID,24.716,VALID,142,VALID,1.37734,
2012-06-08, 01:23:05,VALID,1000.7,VALID,0,VALID,84.0021,VALID,0,VALID,24.757,VALID,149,VALID,1.10391,
2012-06-08, 01:24:05,VALID,1000.71,VALID,0,VALID,83.964,VALID,0,VALID,24.7532,VALID,144,VALID,1.21641,
2012-06-08, 01:25:05,VALID,1000.68,VALID,0,VALID,83.964,VALID,0,VALID,24.7727,VALID,138,VALID,1.18633,
2012-06-08, 01:26:05,VALID,1000.67,VALID,0,VALID,83.8037,VALID,0,VALID,24.7941,VALID,144,VALID,1.32969,
2012-06-08, 01:27:05,VALID,1000.66,VALID,0,VALID,83.8266,VALID,0,VALID,24.7941,VALID,143,VALID,1.2332,
2012-06-08, 01:28:05,VALID,1000.63,VALID,0,VALID,83.4986,VALID,0,VALID,24.8313,VALID,136,VALID,1.36055,
2012-06-08, 01:29:05,VALID,1000.61,VALID,0,VALID,83.4223,VALID,0,VALID,24.8917,VALID,138,VALID,1.16406,
2012-06-08, 01:30:05,VALID,1000.58,VALID,0,VALID,83.2697,VALID,0,VALID,24.8722,VALID,136,VALID,1.31914,
2012-06-08, 01:31:05,VALID,1000.55,VALID,0,VALID,83.3231,VALID,0,VALID,24.8722,VALID,136,VALID,1.19648,
2012-06-08, 01:32:05,VALID,1000.57,VALID,0,VALID,83.3307,VALID,0,VALID,24.8722,VALID,133,VALID,1.18789,
2012-06-08, 01:33:05,VALID,1000.56,VALID,0,VALID,83.6435,VALID,0,VALID,24.8527,VALID,126,VALID,1.01211,
2012-06-08, 01:34:05,VALID,1000.53,VALID,0,VALID,83.4452,VALID,0,VALID,24.8332,VALID,126,VALID,1.475,
2012-06-08, 01:35:05,VALID,1000.53,VALID,0,VALID,83.6283,VALID,0,VALID,24.8332,VALID,130,VALID,1.11758,
2012-06-08, 01:36:05,VALID,1000.49,VALID,0,VALID,83.6359,VALID,0,VALID,24.7941,VALID,130,VALID,1.12266,
2012-06-08, 01:37:05,VALID,1000.48,VALID,0,VALID,83.6664,VALID,0,VALID,24.8117,VALID,130,VALID,1.025,
2012-06-08, 01:38:05,VALID,1000.47,VALID,0,VALID,83.5596,VALID,0,VALID,24.8136,VALID,130,VALID,0.998047,
2012-06-08, 01:39:05,VALID,1000.47,VALID,0,VALID,83.6588,VALID,0,VALID,24.8136,VALID,130,VALID,0.945313,
2012-06-08, 01:40:05,VALID,1000.44,VALID,0,VALID,83.6893,VALID,0,VALID,24.8136,VALID,130,VALID,1.18242,
2012-06-08, 01:41:05,VALID,1000.43,VALID,0,VALID,83.7732,VALID,0,VALID,24.8117,VALID,115,VALID,1.08086,
2012-06-08, 01:42:05,VALID,1000.41,VALID,0,VALID,84.1013,VALID,0.104696,VALID,24.7941,VALID,123,VALID,0.864062,
2012-06-08, 01:43:05,VALID,1000.4,VALID,0,VALID,83.8419,VALID,0,VALID,24.7532,VALID,117,VALID,1.02539,
2012-06-08, 01:44:05,VALID,1000.38,VALID,0,VALID,84.0326,VALID,0,VALID,24.7746,VALID,121,VALID,0.746094,
2012-06-08, 01:45:05,VALID,1000.37,VALID,0,VALID,84.1242,VALID,0,VALID,24.7551,VALID,121,VALID,0.868359,
2012-06-08, 01:46:05,VALID,1000.36,VALID,0,VALID,84.6583,VALID,0,VALID,24.7337,VALID,121,VALID,0.894922,
2012-06-08, 01:47:05,VALID,1000.36,VALID,0,VALID,85.2152,VALID,0,VALID,24.716,VALID,113,VALID,0.933203,
2012-06-08, 01:48:05,VALID,1000.34,VALID,0,VALID,85.5433,VALID,0,VALID,24.6965,VALID,113,VALID,0.510938,
2012-06-08, 01:49:05,VALID,1000.32,VALID,0,VALID,85.9324,VALID,0,VALID,24.6575,VALID,113,VALID,0.271094,
2012-06-08, 01:50:05,VALID,1000.32,VALID,0,VALID,85.9782,VALID,0,VALID,24.6184,VALID,113,VALID,0.562891,
2012-06-08, 01:51:05,VALID,1000.3,VALID,0,VALID,86.2223,VALID,0,VALID,24.5989,VALID,113,VALID,0.325781,
2012-06-08, 01:52:05,VALID,1000.3,VALID,0,VALID,86.2529,VALID,0,VALID,24.5794,VALID,113,VALID,0.319531,
2012-06-08, 01:53:05,VALID,1000.24,VALID,0,VALID,86.0621,VALID,0,VALID,24.5385,VALID,113,VALID,0.533984,
2012-06-08, 01:54:05,VALID,1000.23,VALID,0,VALID,86.2681,VALID,0,VALID,24.5599,VALID,119,VALID,0.325,
2012-06-08, 01:55:05,VALID,1000.25,VALID,0,VALID,85.7417,VALID,0,VALID,24.5599,VALID,137,VALID,0.5375,
2012-06-08, 01:56:05,VALID,1000.23,VALID,0,VALID,84.3683,VALID,0,VALID,24.5989,VALID,151,VALID,1.36602,
2012-06-08, 01:57:05,VALID,1000.24,VALID,0,VALID,83.9334,VALID,0,VALID,24.6751,VALID,145,VALID,1.25625,
2012-06-08, 01:58:05,VALID,1000.22,VALID,0,VALID,83.9487,VALID,0,VALID,24.7356,VALID,146,VALID,1.25156,
2012-06-08, 01:59:05,VALID,1000.21,VALID,0,VALID,83.4757,VALID,0,VALID,24.7746,VALID,147,VALID,1.0625,
2012-06-08, 02:00:05,VALID,1000.23,VALID,0,VALID,83.1018,VALID,0,VALID,24.8136,VALID,138,VALID,1.13672,
2012-06-08, 02:01:05,VALID,1000.19,VALID,0,VALID,82.7661,VALID,0.104696,VALID,24.8332,VALID,148,VALID,1.23008,
2012-06-08, 02:02:05,VALID,1000.17,VALID,0,VALID,82.728,VALID,0,VALID,24.8722,VALID,140,VALID,1.33047,
2012-06-08, 02:03:05,VALID,1000.18,VALID,0,VALID,82.6974,VALID,0,VALID,24.8917,VALID,138,VALID,1.12188,
2012-06-08, 02:04:05,VALID,1000.18,VALID,0,VALID,83.262,VALID,0,VALID,24.8917,VALID,116,VALID,1.12031,
2012-06-08, 02:05:05,VALID,1000.15,VALID,0,VALID,83.4757,VALID,0,VALID,24.8722,VALID,124,VALID,0.769922,
2012-06-08, 02:06:05,VALID,1000.18,VALID,0,VALID,83.4223,VALID,0,VALID,24.8527,VALID,124,VALID,0.539844,
2012-06-08, 02:07:05,VALID,1000.13,VALID,0,VALID,83.4604,VALID,0,VALID,24.8332,VALID,128,VALID,0.647266,
2012-06-08, 02:08:05,VALID,1000.13,VALID,0,VALID,83.407,VALID,0,VALID,24.8136,VALID,139,VALID,0.953516,
2012-06-08, 02:09:05,VALID,1000.08,VALID,0,VALID,83.613,VALID,0,VALID,24.7941,VALID,144,VALID,1,
2012-06-08, 02:10:05,VALID,1000.13,VALID,0,VALID,83.8419,VALID,0,VALID,24.7727,VALID,144,VALID,0.791406,
2012-06-08, 02:11:05,VALID,1000.12,VALID,0,VALID,83.2773,VALID,0,VALID,24.7941,VALID,147,VALID,1.2207,
2012-06-08, 02:12:05,VALID,1000.1,VALID,0,VALID,83.262,VALID,0,VALID,24.8332,VALID,148,VALID,0.955859,
2012-06-08, 02:13:05,VALID,1000.08,VALID,0,VALID,82.9263,VALID,0,VALID,24.8527,VALID,172,VALID,1.11914,
2012-06-08, 02:14:05,VALID,1000.09,VALID,0,VALID,81.9498,VALID,0,VALID,24.9308,VALID,177,VALID,1.47969,
2012-06-08, 02:15:05,VALID,1000.06,VALID,0,VALID,81.6293,VALID,0,VALID,25.0088,VALID,180,VALID,0.875391,
2012-06-08, 02:16:05,VALID,1000.03,VALID,0,VALID,81.1105,VALID,0,VALID,25.126,VALID,164,VALID,0.677734,
2012-06-08, 02:17:05,VALID,1000.03,VALID,0,VALID,80.8053,VALID,0,VALID,25.1455,VALID,153,VALID,0.623047,
2012-06-08, 02:18:05,VALID,999.996,VALID,0,VALID,80.5993,VALID,0,VALID,25.1845,VALID,161,VALID,0.989453,
2012-06-08, 02:19:05,VALID,999.978,VALID,0,VALID,80.6527,VALID,0,VALID,25.1631,VALID,148,VALID,0.964453,
2012-06-08, 02:20:05,VALID,999.957,VALID,0,VALID,81.0342,VALID,0,VALID,25.2236,VALID,129,VALID,0.815234,
2012-06-08, 02:21:05,VALID,999.942,VALID,0,VALID,80.6985,VALID,0,VALID,25.204,VALID,130,VALID,0.500391,
2012-06-08, 02:22:05,VALID,999.969,VALID,0,VALID,80.8435,VALID,0,VALID,25.1845,VALID,130,VALID,0.488281,
2012-06-08, 02:23:05,VALID,999.955,VALID,0,VALID,80.79,VALID,0,VALID,25.1845,VALID,135,VALID,0.942187,
2012-06-08, 02:24:05,VALID,999.93,VALID,0,VALID,81.2249,VALID,0,VALID,25.1631,VALID,133,VALID,0.634766,
2012-06-08, 02:25:05,VALID,999.924,VALID,0,VALID,81.1868,VALID,0,VALID,25.165,VALID,133,VALID,0.810156,
2012-06-08, 02:26:05,VALID,999.881,VALID,0,VALID,80.9198,VALID,0,VALID,25.1241,VALID,133,VALID,1.01836,
2012-06-08, 02:27:05,VALID,999.847,VALID,0,VALID,80.8053,VALID,0,VALID,25.1436,VALID,140,VALID,0.586328,
2012-06-08, 02:28:05,VALID,999.843,VALID,0,VALID,80.935,VALID,0,VALID,25.204,VALID,140,VALID,0.480078,
2012-06-08, 02:29:05,VALID,999.86,VALID,0,VALID,80.8053,VALID,0,VALID,25.1845,VALID,155,VALID,1.12422,
2012-06-08, 02:30:05,VALID,999.842,VALID,0,VALID,81.3699,VALID,0,VALID,25.204,VALID,155,VALID,0.944141,
2012-06-08, 02:31:05,VALID,999.833,VALID,0,VALID,81.2097,VALID,0,VALID,25.1845,VALID,155,VALID,0.803516,
2012-06-08, 02:32:05,VALID,999.836,VALID,0,VALID,81.7514,VALID,0,VALID,25.165,VALID,155,VALID,1.11953,
2012-06-08, 02:33:05,VALID,999.821,VALID,0,VALID,81.5835,VALID,0,VALID,25.1455,VALID,155,VALID,1.21914,
2012-06-08, 02:34:04,VALID,999.857,VALID,0,VALID,81.6369,VALID,0,VALID,25.1455,VALID,152,VALID,1.4332,
2012-06-08, 02:35:04,VALID,999.858,VALID,0,VALID,82.026,VALID,0,VALID,25.1436,VALID,154,VALID,1.27578,
2012-06-08, 02:36:04,VALID,999.824,VALID,0,VALID,82.3007,VALID,0,VALID,25.1436,VALID,159,VALID,1.11133,
2012-06-08, 02:37:04,VALID,999.828,VALID,0,VALID,82.171,VALID,0,VALID,25.085,VALID,159,VALID,1.06211,
2012-06-08, 02:38:04,VALID,999.829,VALID,0,VALID,82.0184,VALID,0,VALID,25.1045,VALID,152,VALID,1.50039,
2012-06-08, 02:39:04,VALID,999.783,VALID,0,VALID,82.026,VALID,0,VALID,25.1455,VALID,146,VALID,1.28047,
2012-06-08, 02:40:04,VALID,999.795,VALID,0,VALID,81.7209,VALID,0,VALID,25.1455,VALID,152,VALID,1.23789,
2012-06-08, 02:41:04,VALID,999.773,VALID,0,VALID,81.5683,VALID,0,VALID,25.1455,VALID,157,VALID,1.2418,
2012-06-08, 02:42:04,VALID,999.769,VALID,0,VALID,81.408,VALID,0,VALID,25.1826,VALID,164,VALID,1.11719,
2012-06-08, 02:43:04,VALID,999.766,VALID,0,VALID,81.0189,VALID,0,VALID,25.204,VALID,156,VALID,1.04062,
2012-06-08, 02:44:04,VALID,999.752,VALID,0,VALID,80.729,VALID,0,VALID,25.2236,VALID,152,VALID,1.11055,
2012-06-08, 02:45:04,VALID,999.752,VALID,0,VALID,80.6298,VALID,0,VALID,25.2412,VALID,155,VALID,0.681641,
2012-06-08, 02:46:04,VALID,999.727,VALID,0,VALID,80.4467,VALID,0,VALID,25.2626,VALID,165,VALID,0.848047,
2012-06-08, 02:47:04,VALID,999.743,VALID,0,VALID,80.1339,VALID,0,VALID,25.2821,VALID,180,VALID,1.32031,
2012-06-08, 02:48:04,VALID,999.724,VALID,0,VALID,79.9355,VALID,0,VALID,25.3388,VALID,193,VALID,1.18672,
2012-06-08, 02:49:04,VALID,999.713,VALID,0,VALID,79.1192,VALID,0,VALID,25.3973,VALID,184,VALID,0.870313,
2012-06-08, 02:50:04,VALID,999.724,VALID,0,VALID,78.8521,VALID,0,VALID,25.4559,VALID,178,VALID,1.43672,
2012-06-08, 02:51:04,VALID,999.701,VALID,0,VALID,78.0586,VALID,0,VALID,25.534,VALID,182,VALID,1.96133,
2012-06-08, 02:52:04,VALID,999.704,VALID,0,VALID,77.6161,VALID,0,VALID,25.5926,VALID,170,VALID,1.75703,
2012-06-08, 02:53:04,VALID,999.694,VALID,0,VALID,77.4101,VALID,0,VALID,25.6121,VALID,164,VALID,1.79102,
2012-06-08, 02:54:04,VALID,999.719,VALID,0,VALID,77.3186,VALID,0,VALID,25.6316,VALID,170,VALID,1.68828,
2012-06-08, 02:55:04,VALID,999.718,VALID,0,VALID,77.6619,VALID,0,VALID,25.6531,VALID,171,VALID,1.4918,
2012-06-08, 02:56:04,VALID,999.708,VALID,0,VALID,77.5551,VALID,0,VALID,25.6316,VALID,158,VALID,1.39766,
2012-06-08, 02:57:04,VALID,999.671,VALID,0,VALID,78.4172,VALID,0,VALID,25.6316,VALID,173,VALID,0.9375,
2012-06-08, 02:58:04,VALID,999.7,VALID,0,VALID,77.2575,VALID,0,VALID,25.6121,VALID,187,VALID,1.48438,
2012-06-08, 02:59:04,VALID,999.684,VALID,0,VALID,77.021,VALID,0,VALID,25.6707,VALID,175,VALID,1.30586,
2012-06-08, 03:00:04,VALID,999.684,VALID,0,VALID,76.2504,VALID,0,VALID,25.7097,VALID,172,VALID,1.57852,
2012-06-08, 03:01:04,VALID,999.669,VALID,0,VALID,76.0902,VALID,0,VALID,25.7507,VALID,181,VALID,1.32695,
2012-06-08, 03:02:04,VALID,999.694,VALID,0,VALID,75.9452,VALID,0,VALID,25.7897,VALID,187,VALID,1.28008,
2012-06-08, 03:03:04,VALID,999.665,VALID,0,VALID,75.6629,VALID,0,VALID,25.8288,VALID,188,VALID,1.24453,
2012-06-08, 03:04:04,VALID,999.685,VALID,0,VALID,75.6477,VALID,0,VALID,25.8464,VALID,180,VALID,1.00742,
2012-06-08, 03:05:04,VALID,999.677,VALID,0,VALID,75.9758,VALID,0.104696,VALID,25.8249,VALID,167,VALID,1.52383,
2012-06-08, 03:06:04,VALID,999.697,VALID,0,VALID,75.1136,VALID,0,VALID,25.8854,VALID,181,VALID,1.23164,
2012-06-08, 03:07:04,VALID,999.643,VALID,0,VALID,74.7932,VALID,0.104696,VALID,25.9245,VALID,172,VALID,1.44102,
2012-06-08, 03:08:04,VALID,999.663,VALID,0,VALID,74.5414,VALID,0,VALID,25.9635,VALID,184,VALID,1.275,
2012-06-08, 03:09:04,VALID,999.611,VALID,0,VALID,74.0912,VALID,0,VALID,26.0026,VALID,184,VALID,1.23633,
2012-06-08, 03:10:04,VALID,999.622,VALID,0,VALID,74.3125,VALID,0.104696,VALID,26.0006,VALID,173,VALID,1.31328,
2012-06-08, 03:11:04,VALID,999.604,VALID,0,VALID,74.9305,VALID,0.104696,VALID,25.9811,VALID,175,VALID,1.40664,
2012-06-08, 03:12:04,VALID,999.615,VALID,0,VALID,75.5027,VALID,0,VALID,25.9615,VALID,163,VALID,1.17969,
2012-06-08, 03:13:04,VALID,999.606,VALID,0,VALID,75.4646,VALID,0,VALID,25.9245,VALID,171,VALID,1.08477,
2012-06-08, 03:14:04,VALID,999.589,VALID,0,VALID,75.1365,VALID,0.104696,VALID,25.8639,VALID,168,VALID,1.29766,
2012-06-08, 03:15:04,VALID,999.624,VALID,0,VALID,75.3044,VALID,0,VALID,25.8639,VALID,174,VALID,1.35703,
2012-06-08, 03:16:04,VALID,999.638,VALID,0,VALID,75.7087,VALID,0.104696,VALID,25.9049,VALID,173,VALID,1.25312,
2012-06-08, 03:17:04,VALID,999.612,VALID,0,VALID,75.9147,VALID,0.104696,VALID,25.8464,VALID,176,VALID,1.45273,
2012-06-08, 03:18:04,VALID,999.649,VALID,0,VALID,74.8695,VALID,0.104696,VALID,25.8444,VALID,188,VALID,1.13047,
2012-06-08, 03:19:04,VALID,999.626,VALID,0,VALID,74.9458,VALID,0,VALID,25.8854,VALID,181,VALID,1.27578,
2012-06-08, 03:20:04,VALID,999.627,VALID,0,VALID,74.5032,VALID,0,VALID,25.9049,VALID,214,VALID,1.44922,
2012-06-08, 03:21:04,VALID,999.63,VALID,0,VALID,74.9839,VALID,0,VALID,25.944,VALID,203,VALID,0.933984,
2012-06-08, 03:22:04,VALID,999.604,VALID,0,VALID,75.2967,VALID,0,VALID,25.9245,VALID,198,VALID,0.890234,
2012-06-08, 03:23:04,VALID,999.605,VALID,0,VALID,76.0444,VALID,0,VALID,25.9049,VALID,214,VALID,0.846484,
2012-06-08, 03:24:04,VALID,999.611,VALID,0,VALID,75.6858,VALID,0,VALID,25.8679,VALID,217,VALID,1.13711,
2012-06-08, 03:25:04,VALID,999.599,VALID,0,VALID,76.0978,VALID,0,VALID,25.8268,VALID,209,VALID,1.00742,
2012-06-08, 03:26:04,VALID,999.62,VALID,0,VALID,75.6095,VALID,0,VALID,25.8268,VALID,213,VALID,1.00742,
2012-06-08, 03:27:04,VALID,999.601,VALID,0,VALID,75.7163,VALID,0,VALID,25.8268,VALID,214,VALID,1.7332,
2012-06-08, 03:28:04,VALID,999.599,VALID,0,VALID,75.5409,VALID,0,VALID,25.8268,VALID,197,VALID,1.56992,
2012-06-08, 03:29:04,VALID,999.616,VALID,0,VALID,75.6935,VALID,0,VALID,25.8268,VALID,210,VALID,1.62852,
2012-06-08, 03:30:04,VALID,999.587,VALID,0,VALID,75.7774,VALID,0,VALID,25.8073,VALID,185,VALID,1.29492,
2012-06-08, 03:31:04,VALID,999.576,VALID,0,VALID,76.0826,VALID,0,VALID,25.8073,VALID,174,VALID,0.989844,
2012-06-08, 03:32:04,VALID,999.548,VALID,0,VALID,75.9758,VALID,0,VALID,25.7683,VALID,195,VALID,1.46406,
2012-06-08, 03:33:04,VALID,999.54,VALID,0,VALID,76.1283,VALID,0,VALID,25.7683,VALID,178,VALID,1.60234,
2012-06-08, 03:34:04,VALID,999.529,VALID,0,VALID,76.8379,VALID,0,VALID,25.7683,VALID,181,VALID,1.15078,
2012-06-08, 03:35:04,VALID,999.553,VALID,0,VALID,76.3038,VALID,0,VALID,25.7683,VALID,180,VALID,1.91094,
2012-06-08, 03:36:04,VALID,999.527,VALID,0,VALID,75.9834,VALID,0,VALID,25.7878,VALID,189,VALID,1.79297,
2012-06-08, 03:37:04,VALID,999.504,VALID,0,VALID,76.3267,VALID,0,VALID,25.7683,VALID,183,VALID,1.87812,
2012-06-08, 03:38:04,VALID,999.489,VALID,0,VALID,76.197,VALID,0,VALID,25.7487,VALID,179,VALID,1.90977,
2012-06-08, 03:39:04,VALID,999.476,VALID,0,VALID,76.403,VALID,0,VALID,25.7507,VALID,173,VALID,1.85664,
2012-06-08, 03:40:04,VALID,999.461,VALID,0,VALID,76.6701,VALID,0,VALID,25.7487,VALID,183,VALID,1.87344,
2012-06-08, 03:41:04,VALID,999.459,VALID,0,VALID,76.4946,VALID,0,VALID,25.7702,VALID,167,VALID,2.11094,
2012-06-08, 03:42:04,VALID,999.432,VALID,0,VALID,76.8761,VALID,0,VALID,25.7487,VALID,166,VALID,1.90195,
2012-06-08, 03:43:04,VALID,999.428,VALID,0,VALID,77.288,VALID,0,VALID,25.7292,VALID,160,VALID,1.69766,
2012-06-08, 03:44:04,VALID,999.401,VALID,0,VALID,77.3109,VALID,0,VALID,25.6726,VALID,156,VALID,2.39453,
2012-06-08, 03:45:04,VALID,999.363,VALID,0,VALID,77.4635,VALID,0,VALID,25.6316,VALID,158,VALID,1.99219,
2012-06-08, 03:46:04,VALID,999.389,VALID,0,VALID,77.2652,VALID,0,VALID,25.5926,VALID,149,VALID,2.49023,